Location: Grandin
(36.0440°N, 81.4159°W)
Time: 16:38:15
(UTC+00:00)

X-37B - Visible Passes

Search period start: 06 July 2022 00:00
Search period end: 16 July 2022 00:00
Orbit: 328 x 343 km, 45.0° (Epoch: 29 June)

Date Brightness Start Highest point End Pass type
(mag) Time Alt. Az. Time Alt. Az. Time Alt. Az.
06 Jul 2.6 02:49:09 10° NW 02:51:17 19° NNE 02:51:49 18° NNE visible
07 Jul 3.1 01:34:20 10° NNW 01:35:56 14° N 01:37:31 10° NE visible
07 Jul 2.5 03:09:19 10° NW 03:11:02 27° NNW 03:11:02 27° NNW visible
08 Jul 2.6 01:54:36 10° NW 01:56:43 19° NNE 01:58:50 10° ENE visible
08 Jul 3.3 03:29:39 10° WNW 03:30:15 15° WNW 03:30:15 15° WNW visible
09 Jul 1.5 02:14:46 10° NW 02:17:24 35° NNE 02:18:18 27° ENE visible
10 Jul 0.5 02:35:06 10° WNW 02:37:36 67° WNW 02:37:36 67° WNW visible
11 Jul 1.5 01:20:14 10° NW 01:22:51 34° NNE 01:25:27 10° E visible
11 Jul 2.8 02:55:53 10° W 02:56:56 17° W 02:56:56 17° W visible
12 Jul 0.2 01:40:33 10° WNW 01:43:20 83° SW 01:45:07 20° SE visible
13 Jul 1.9 02:01:20 10° W 02:03:40 24° SW 02:04:34 20° S visible
